Regional Weather Roundup
Issued by NWS

Home | Current Version | Previous Version | Graphics & Text | Print | Product List | Glossary On
Versions: 1 2 3 4 5 6 7 8 9 10 11 12 13 14 15 16 17 18 19 20 21 22 23 24 25 26 27 28 29 30 31 32 33 34 35 36 37 38 39 40 41 42 43 44 45 46 47 48 49 50
000
ASUS43 KBIS 171810
RWRND

NORTH DAKOTA REGIONAL WEATHER ROUNDUP
NATIONAL WEATHER SERVICE BISMARCK ND
100 PM CDT WED SEP 17 2014

NOTE: "FAIR" INDICATES FEW OR NO CLOUDS BELOW 12,000 FEET WITH NO
SIGNIFICANT WEATHER AND/OR OBSTRUCTIONS TO VISIBILITY.


NDZ001>003-009>011-017-171900-
NORTHWEST NORTH DAKOTA

CITY           SKY/WX    TMP DP  RH WIND       PRES   REMARKS
WILLISTON      PTSUNNY   72  43  35 S9        29.95F
6HR MIN TEMP:  36; 6HR MAX TEMP:  72;

MINOT          FAIR      66  47  50 E7        29.99F
MINOT AFB      FAIR      65  49  56 E8        29.99F
$$

NDZ018>021-031>035-040>046-171900-
SOUTHWEST NORTH DAKOTA

CITY           SKY/WX    TMP DP  RH WIND       PRES   REMARKS
BISMARCK       MOSUNNY   73  50  44 E8        29.98F
6HR MIN TEMP:  35; 6HR MAX TEMP:  73;

DICKINSON      CLOUDY    67  44  43 E12       29.97S
GARRISON         N/A     70  49  47 E6        29.98F
6HR MIN TEMP:  40; 6HR MAX TEMP:  70;

HETTINGER ARPT PTSUNNY   70  49  47 SE7       29.98S
$$

NDZ004>008-012>016-024-026-027-054-171900-
NORTHEAST NORTH DAKOTA

CITY           SKY/WX    TMP DP  RH WIND       PRES   REMARKS
GRAND FORKS    FAIR      62  52  69 N14       30.00S
GRND FRKS AFB  PTSUNNY   57  52  82 N13       30.03R
DEVILS LAKE    FAIR      57  45  62 NE9       30.02R
$$

NDZ022-023-025-028>030-036>039-047>053-171900-
SOUTHEAST NORTH DAKOTA

CITY           SKY/WX    TMP DP  RH WIND       PRES   REMARKS
FARGO          FAIR      70  50  49 VRB6      29.96S
6HR MIN TEMP:  43; 6HR MAX TEMP:  70;

JAMESTOWN      FAIR      70  50  49 CALM      29.97F
$$




USA.gov is the U.S. government's official web portal to all federal, state and local government web resources and services.